Location: Camp at the Woods
(43.2055°N, 93.0905°W)
Time: 12:43:35
(UTC+00:00)

NOSS 3-4 (C) - Pass Details

Date: 05 December 2023
Orbit: 810 x 1402 km, 63.4° (Epoch: 18 February)

Event Time Altitude Azimuth Distance (km) Brightness Sun altitude
Rises 22:49:29 0° 322° (NW) 3,806 6.7 -2.8°
Reaches altitude 10° 22:51:57 10° 322° (NW) 2,929 6.2 -3.2°
Maximum altitude 22:59:01 81° 236° (WSW) 1,219 4.2 -4.3°
Drops below altitude 10° 23:07:07 10° 151° (SSE) 3,334 6.3 -5.6°
Sets 23:10:06 0° 150° (SSE) 4,360 6.8 -6.1°
